When you browse on this site, cookies collect data to enhance your experience and personalize the content and advertising you see.
Visit our Privacy Policy to learn more. By continuing to use the site, you agree to this use of cookies and data.
  • în România
  • Lista ţărilor
  • Pe 7 zile
  • Temperatura apei
  • Hartă satelitară
  • Meteo pe hartă
  • Widget-uri
  • user-avatar
    Intrare

    Meteo pe oră la Shkoder

    Astăzi, 22 Martie, Vineri

    Timp Temperatura Precipitaţii Vânt Presiune Umiditate
    00:00 +8°C° 0 mm 4 m/s 748 mmHg 64%
    01:00 +8°C° 0 mm 4 m/s 748 mmHg 64%
    02:00 +8°C° 0 mm 4 m/s 748 mmHg 64%
    03:00 +7°C° 0 mm 4 m/s 748 mmHg 64%
    04:00 +7°C° 0 mm 4 m/s 748 mmHg 64%
    05:00 +7°C° 0 mm 4 m/s 748 mmHg 63%
    06:00 +8°C° 0 mm 4 m/s 748 mmHg 62%
    07:00 +9°C° 0 mm 3 m/s 748 mmHg 61%
    08:00 +11°C° 0 mm 3 m/s 748 mmHg 55%
    09:00 +13°C° 0 mm 3 m/s 748 mmHg 49%
    10:00 +16°C° 0 mm 3 m/s 748 mmHg 43%
    11:00 +17°C° 0 mm 3 m/s 747 mmHg 41%
    12:00 +18°C° 0 mm 3 m/s 747 mmHg 38%
    13:00 +19°C° 0 mm 3 m/s 747 mmHg 36%
    14:00 +19°C° 0 mm 3 m/s 746 mmHg 36%
    15:00 +19°C° 0 mm 2 m/s 746 mmHg 37%
    16:00 +19°C° 0 mm 2 m/s 745 mmHg 37%
    17:00 +17°C° 0 mm 3 m/s 746 mmHg 41%
    18:00 +14°C° 0 mm 3 m/s 746 mmHg 46%
    19:00 +13°C° 0 mm 3 m/s 746 mmHg 50%
    20:00 +12°C° 0 mm 3 m/s 746 mmHg 51%
    21:00 +11°C° 0 mm 3 m/s 746 mmHg 51%
    22:00 +11°C° 0 mm 3 m/s 746 mmHg 52%
    23:00 +10°C° 0 mm 4 m/s 746 mmHg 53%

    Mâine, 23 Martie, Sâmbătă

    Timp Temperatura Precipitaţii Vânt Presiune Umiditate
    00:00 +10°C° 0 mm 4 m/s 747 mmHg 53%
    01:00 +10°C° 0 mm 4 m/s 747 mmHg 54%
    02:00 +8°C° 0 mm 4 m/s 746 mmHg 54%
    03:00 +9°C° 0 mm 3 m/s 746 mmHg 55%
    04:00 +9°C° 0 mm 3 m/s 746 mmHg 55%
    05:00 +9°C° 0 mm 3 m/s 746 mmHg 56%
    06:00 +10°C° 0 mm 3 m/s 746 mmHg 57%
    07:00 +10°C° 0 mm 3 m/s 746 mmHg 58%
    08:00 +12°C° 0 mm 3 m/s 746 mmHg 52%
    09:00 +14°C° 0 mm 3 m/s 746 mmHg 47%
    10:00 +18°C° 0 mm 3 m/s 745 mmHg 41%
    11:00 +19°C° 0 mm 3 m/s 745 mmHg 39%
    12:00 +19°C° 0 mm 2 m/s 745 mmHg 37%
    13:00 +20°C° 0 mm 2 m/s 745 mmHg 35%
    14:00 +20°C° 0 mm 2 m/s 744 mmHg 36%
    15:00 +20°C° 0 mm 2 m/s 744 mmHg 38%
    16:00 +20°C° 0 mm 2 m/s 743 mmHg 39%
    17:00 +18°C° 0 mm 2 m/s 744 mmHg 45%
    18:00 +17°C° 0 mm 2 m/s 744 mmHg 50%
    19:00 +15°C° 0 mm 2 m/s 744 mmHg 56%
    20:00 +13°C° 0 mm 3 m/s 744 mmHg 57%
    21:00 +13°C° 0 mm 3 m/s 744 mmHg 59%
    22:00 +12°C° 0 mm 3 m/s 745 mmHg 61%
    23:00 +12°C° 0 mm 3 m/s 745 mmHg 63%

    Poimâine, 24 Martie, Duminică

    Timp Temperatura Precipitaţii Vânt Presiune Umiditate
    00:00 +12°C° 0 mm 3 m/s 745 mmHg 66%
    01:00 +11°C° 0 mm 3 m/s 745 mmHg 68%
    02:00 +11°C° 0 mm 3 m/s 744 mmHg 69%
    03:00 +10°C° 0 mm 3 m/s 744 mmHg 71%
    04:00 +10°C° 0 mm 3 m/s 744 mmHg 72%
    05:00 +10°C° 0 mm 3 m/s 744 mmHg 70%
    06:00 +11°C° 0 mm 3 m/s 744 mmHg 68%
    07:00 +11°C° 0 mm 3 m/s 744 mmHg 65%
    08:00 +13°C° 0 mm 3 m/s 744 mmHg 56%
    09:00 +16°C° 0 mm 2 m/s 744 mmHg 48%
    10:00 +19°C° 0 mm 2 m/s 744 mmHg 39%
    11:00 +19°C° 0 mm 2 m/s 744 mmHg 36%
    12:00 +20°C° 0 mm 2 m/s 744 mmHg 33%
    13:00 +22°C° 0 mm 1 m/s 743 mmHg 30%
    14:00 +21°C° 0 mm 2 m/s 743 mmHg 33%
    15:00 +21°C° 0 mm 2 m/s 742 mmHg 35%
    16:00 +20°C° 0 mm 2 m/s 742 mmHg 38%
    17:00 +18°C° 0 mm 2 m/s 742 mmHg 44%
    18:00 +18°C° 0 mm 1 m/s 742 mmHg 50%
    19:00 +15°C° 0 mm 1 m/s 742 mmHg 57%
    20:00 +15°C° 0 mm 1 m/s 742 mmHg 55%
    21:00 +14°C° 0 mm 1 m/s 743 mmHg 54%
    22:00 +14°C° 0 mm 1 m/s 743 mmHg 53%
    23:00 +13°C° 0 mm 1 m/s 743 mmHg 52%

    25 Martie, Luni

    Timp Temperatura Precipitaţii Vânt Presiune Umiditate
    00:00 +13°C° 0 mm 2 m/s 743 mmHg 52%
    01:00 +13°C° 0 mm 2 m/s 743 mmHg 51%
    02:00 +12°C° 0 mm 2 m/s 742 mmHg 51%
    03:00 +12°C° 0 mm 2 m/s 742 mmHg 51%
    04:00 +12°C° 0 mm 2 m/s 742 mmHg 51%
    05:00 +12°C° 0 mm 2 m/s 742 mmHg 52%
    06:00 +13°C° 0 mm 2 m/s 742 mmHg 52%
    07:00 +13°C° 0 mm 2 m/s 742 mmHg 53%
    08:00 +15°C° 0 mm 2 m/s 742 mmHg 46%
    09:00 +18°C° 0 mm 1 m/s 742 mmHg 40%
    10:00 +20°C° 0 mm 1 m/s 742 mmHg 33%
    11:00 +21°C° 0 mm 1 m/s 742 mmHg 32%
    12:00 +21°C° 0 mm 1 m/s 742 mmHg 31%
    13:00 +21°C° 0 mm 2 m/s 741 mmHg 30%
    14:00 +20°C° 0 mm 2 m/s 741 mmHg 33%
    15:00 +20°C° 0 mm 2 m/s 741 mmHg 36%
    16:00 +19°C° 0 mm 2 m/s 740 mmHg 39%
    17:00 +18°C° 0 mm 2 m/s 740 mmHg 46%
    18:00 +16°C° 0 mm 1 m/s 740 mmHg 53%
    19:00 +15°C° 0 mm 1 m/s 741 mmHg 61%
    20:00 +14°C° 0.1 mm 2 m/s 741 mmHg 63%
    21:00 +14°C° 0.1 mm 2 m/s 741 mmHg 66%
    22:00 +12°C° 0.1 mm 3 m/s 741 mmHg 68%
    23:00 +12°C° 0.1 mm 3 m/s 741 mmHg 68%

    26 Martie, Marţi

    Timp Temperatura Precipitaţii Vânt Presiune Umiditate
    00:00 +11°C° 0.1 mm 4 m/s 741 mmHg 68%
    01:00 +11°C° 0.1 mm 4 m/s 741 mmHg 68%
    02:00 +11°C° 0.2 mm 4 m/s 741 mmHg 66%
    03:00 +9°C° 0.2 mm 5 m/s 741 mmHg 65%
    04:00 +9°C° 0.2 mm 5 m/s 741 mmHg 64%
    05:00 +8°C° 0 mm 5 m/s 741 mmHg 62%
    06:00 +8°C° 0 mm 5 m/s 741 mmHg 59%
    07:00 +8°C° 0 mm 4 m/s 742 mmHg 57%
    08:00 +10°C° 0 mm 4 m/s 742 mmHg 51%
    09:00 +11°C° 0 mm 4 m/s 742 mmHg 46%
    10:00 +12°C° 0 mm 4 m/s 742 mmHg 40%
    11:00 +12°C° 0 mm 5 m/s 742 mmHg 38%
    12:00 +12°C° 0 mm 5 m/s 742 mmHg 35%
    13:00 +12°C° 0 mm 5 m/s 742 mmHg 33%
    14:00 +12°C° 0 mm 5 m/s 742 mmHg 33%
    15:00 +10°C° 0 mm 5 m/s 742 mmHg 33%
    16:00 +10°C° 0 mm 6 m/s 742 mmHg 33%
    17:00 +8°C° 0 mm 5 m/s 742 mmHg 38%
    18:00 +7°C° 0 mm 5 m/s 743 mmHg 42%
    19:00 +6°C° 0 mm 4 m/s 743 mmHg 47%
    20:00 +5°C° 0.1 mm 4 m/s 744 mmHg 50%
    21:00 +5°C° 0.1 mm 4 m/s 744 mmHg 52%
    22:00 +4°C° 0.1 mm 3 m/s 745 mmHg 55%
    23:00 +4°C° 0 mm 3 m/s 745 mmHg 56%

    27 Martie, Miercuri

    Timp Temperatura Precipitaţii Vânt Presiune Umiditate
    00:00 +4°C° 0 mm 3 m/s 745 mmHg 57%
    01:00 +3°C° 0 mm 3 m/s 745 mmHg 59%
    02:00 +3°C° 0 mm 3 m/s 745 mmHg 58%
    03:00 +3°C° 0 mm 3 m/s 745 mmHg 58%
    04:00 +3°C° 0 mm 4 m/s 745 mmHg 58%
    05:00 +4°C° 0 mm 4 m/s 746 mmHg 56%
    06:00 +4°C° 0 mm 4 m/s 746 mmHg 54%
    07:00 +5°C° 0 mm 4 m/s 746 mmHg 52%
    08:00 +6°C° 0 mm 4 m/s 746 mmHg 47%
    09:00 +8°C° 0 mm 4 m/s 747 mmHg 41%
    10:00 +10°C° 0 mm 4 m/s 747 mmHg 36%
    11:00 +11°C° 0 mm 4 m/s 747 mmHg 35%
    12:00 +12°C° 0 mm 4 m/s 746 mmHg 33%
    13:00 +13°C° 0 mm 4 m/s 746 mmHg 32%
    14:00 +13°C° 0 mm 3 m/s 746 mmHg 33%
    15:00 +13°C° 0 mm 3 m/s 746 mmHg 33%
    16:00 +13°C° 0 mm 3 m/s 746 mmHg 34%
    17:00 +11°C° 0 mm 3 m/s 746 mmHg 39%
    18:00 +10°C° 0 mm 3 m/s 746 mmHg 44%
    19:00 +8°C° 0 mm 2 m/s 747 mmHg 49%
    20:00 +8°C° 0 mm 3 m/s 747 mmHg 52%
    21:00 +7°C° 0 mm 3 m/s 747 mmHg 55%
    22:00 +5°C° 0 mm 3 m/s 748 mmHg 58%
    23:00 +5°C° 0 mm 3 m/s 748 mmHg 59%
    Arată mai mult